This demonstration page uses our WeatherBlox Daily Observations layout. Learn more.

Left ArrowRight Arrow

Hourly Observations for March 20, 2020

Temp ( °F °C ) Dew Point ( °F °C ) Humidity (%) Winds ( mph kmh ) Pressure ( in mb ) Visibility ( mi km ) Precip ( " mm )
12:03 am 00:03 Cloudy with Light Rain 65 18.3 63 17.2 93 93 W 6 9 29.95 1014 4 6.43736 0.01 0.254
12:25 am 00:25 Cloudy with Rain 64 17.8 63 17.2 96 96 N N/A 29.95 1014 3 4.82802 0.03 0.762
12:36 am 00:36 Cloudy with Heavy Rain 64 17.8 63 17.2 96 96 undefined N/A 29.96 1015 2 3.21868 0.09 2.286
12:46 am 00:46 Cloudy with Light Rain 65 18.3 63 17.2 93 93 SSW 5 7 29.95 1014 5 8.0467 0.1 2.54
12:53 am 00:53 Cloudy with Light Rain 65 18.3 63 17.2 93 93 SW 7 11 29.96 1014 10 16.0934 0.1 2.54
1:07 am 01:07 Cloudy 66 18.9 63 17.2 90 90 VRB 7 11 29.95 1014 10 16.0934 0.001 0.001
1:53 am 01:53 Cloudy with Light Rain 66 18.9 63 17.2 90 90 SW 8 13 29.94 1014 10 16.0934 0.001 0.001
2:02 am 02:02 Cloudy with Light Rain 66 18.9 63 17.2 90 90 VRB 7 11 29.94 1014 8 12.87472 0.01 0.254
2:53 am 02:53 Cloudy with Light Rain 66 18.9 63 17.2 90 90 SSW 5 7 29.92 1013 10 16.0934 0.02 0.508
3:44 am 03:44 Mostly Cloudy with Nearby Thunderstorms 67 19.4 63 17.2 87 87 SSW 9 15 29.89 1012 10 16.0934 0.001 0.001
3:53 am 03:53 Mostly Cloudy 68 20 62 16.7 81 81 SW 10 17 29.89 1012 10 16.0934 0.001 0.001
4:46 am 04:46 Mostly Cloudy with Nearby Thunderstorms 69 20.6 62 16.7 78 78 SSW 13 20 29.85 1011 10 16.0934 0.001 0.001
4:53 am 04:53 Mostly Cloudy with Nearby Thunderstorms 68 20 62 16.7 81 81 SSW 15 24 29.87 1011 7 11.26538 0.01 0.254
5:08 am 05:08 Cloudy with Nearby Thunderstorms 66 18.9 63 17.2 90 90 VRB 7 11 29.87 1011 2.5 4.02335 0.06 1.524
5:23 am 05:23 Cloudy with Heavy Rain 66 18.9 63 17.2 90 90 SW 12 19 29.87 1011 3 4.82802 0.12 3.048
5:38 am 05:38 Cloudy with Light Rain 66 18.9 62 16.7 87 87 SSW 9 15 29.85 1011 5 8.0467 0.15 3.81
5:53 am 05:53 Partly Cloudy 65 18.3 61 16.1 87 87 SW 12 19 29.87 1011 10 16.0934 0.15 3.81
6:53 am 06:53 Cloudy with Light Rain 64 17.8 61 16.1 90 90 SW 7 11 29.86 1011 7 11.26538 0.02 0.508
7:36 am 07:36 Cloudy with Nearby Thunderstorms 65 18.3 62 16.7 90 90 WNW 16 26 29.87 1011 2 3.21868 0.18 4.572
7:39 am 07:39 Cloudy with Nearby Thunderstorms 64 17.8 62 16.7 93 93 SW 20 31 29.86 1011 0.75 1.207005 0.32 8.128
7:48 am 07:48 Cloudy with Heavy Rain 64 18 63 17 94 94 WSW 20 31 29.87 1012 1.25 2.011675 0.4 10.16
7:50 am 07:50 Cloudy with Rain 64 18 61 16 88 88 WSW 17 28 29.87 1012 2 3.21868 0.41 10.414
7:53 am 07:53 Cloudy with Rain 64 17.8 61 16.1 90 90 WSW 17 28 29.88 1012 3 4.82802 0.41 10.414
8:53 am 08:53 Sunny 64 17.8 59 15 84 84 SW 9 15 29.91 1013 10 16.0934 0.001 0.001
9:53 am 09:53 Sunny 67 19.4 61 16.1 81 81 WSW 12 19 29.94 1014 10 16.0934 N/A
10:53 am 10:53 Mostly Sunny 69 20.6 60 15.6 73 73 WSW 14 22 29.97 1015 10 16.0934 N/A
11:53 am 11:53 Mostly Cloudy 70 21.1 60 15.6 71 71 SW 15 24 29.97 1015 10 16.0934 N/A
12:53 pm 12:53 Mostly Cloudy 72 22.2 58 14.4 61 61 WSW 16 26 29.98 1015 10 16.0934 N/A
1:53 pm 13:53 Cloudy with Light Rain 61 16.1 56 13.3 84 84 NW 18 30 30.02 1017 5 8.0467 0.02 0.508
2:53 pm 14:53 Mostly Cloudy 61 16.1 52 11.1 72 72 WNW 13 20 30.04 1017 10 16.0934 0.001 0.001
3:53 pm 15:53 Mostly Cloudy 59 15 50 10 72 72 WNW 17 28 30.06 1018 10 16.0934 N/A
4:13 pm 16:13 Cloudy 57 13.9 48 8.9 72 72 NW 16 26 30.1 1019 10 16.0934 N/A
4:53 pm 16:53 Cloudy 55 12.8 46 7.8 72 72 NW 16 26 30.11 1020 10 16.0934 N/A
5:53 pm 17:53 Cloudy 50 10 41 5 71 71 NW 17 28 30.16 1022 10 16.0934 N/A
6:53 pm 18:53 Cloudy 47 8.3 38 3.3 71 71 NNW 16 26 30.21 1023 10 16.0934 N/A
7:53 pm 19:53 Cloudy 44 6.7 36 2.2 73 73 NNW 10 17 30.25 1025 10 16.0934 N/A
8:53 pm 20:53 Cloudy 43 6.1 34 1.1 71 71 NNW 12 19 30.27 1025 10 16.0934 N/A
9:53 pm 21:53 Cloudy 42 5.6 33 0.6 71 71 NNW 9 15 30.32 1027 10 16.0934 N/A
10:53 pm 22:53 Cloudy 41 5 32 undefined 70 70 NNW 15 24 30.35 1028 10 16.0934 N/A
11:53 pm 23:53 Cloudy 39 3.9 31 -0.6 73 73 N 10 17 30.36 1028 10 16.0934 N/A

Powered by AerisWeather